x

8452951 - Potter Cove, Prudence Island, Ri (ptcr1) Weather Station

5:54am - Sat 24th Jun 2017 All times are EDT. -4 hours from GMT.

  • Wind
    6mph, 11mph gusts
  • 空気 Temp 70°f
  • Sea Pressure 1001.5mb
  • 8452951 - Potter Cove, Prudence Island, Ri
  • 8452951 - Potter Cove, Prudence Island, Ri

More Historic Weather Station data

Upgrade to MSW Pro to gain access to the past 30 days of data for over 8000 Wavebouys and Weather Stations around the globe.

Join Pro

Comparision Forecast

View Surf forecast
   
Sat 06/24 5:54am 6 11 mph 1001.5mb 70f
5:48am 7 11 mph 1001.5mb 69f
5:42am 6 11 mph 1001.6mb 69f
5:36am 6 11 mph 1001.6mb 69f
5:30am 6 11 mph 1001.6mb 69f
5:24am 6 14 mph 1001.5mb 68f
5:18am 7 14 mph 1001.5mb 69f
5:12am 7 14 mph 1001.4mb 69f
5:06am 6 11 mph 1001.3mb 69f
5:00am 6 11 mph 1001.3mb 69f
4:54am 6 11 mph 1001.3mb 69f
4:48am 6 13 mph - -
4:42am 6 14 mph 1001.1mb 69f
4:36am 8 14 mph 1001.2mb 69f
4:30am 7 11 mph 1001.4mb 69f
4:24am 6 13 mph 1001.3mb 69f
4:18am 8 14 mph 1001.3mb 69f
4:12am 7 16 mph 1001.3mb 69f
4:06am 8 15 mph 1001.3mb 69f
4:00am 6 14 mph 1001.4mb 69f
3:54am 7 13 mph 1001.3mb 69f
3:48am 7 15 mph 1001.4mb 69f
3:42am 6 13 mph 1001.5mb 69f
3:36am 6 11 mph 1001.6mb 69f
3:30am 7 15 mph 1001.5mb 69f
3:24am 7 14 mph 1001.6mb 69f
3:18am 7 14 mph - -
3:12am 7 14 mph 1001.6mb 68f
3:06am 7 13 mph 1001.7mb 69f
3:00am 6 14 mph 1001.7mb 69f
2:48am 7 14 mph 1001.8mb 69f
2:42am 6 11 mph 1001.8mb 70f
2:36am 5 9 mph 1001.9mb 70f
2:30am 6 11 mph 1001.8mb 70f
2:24am 7 15 mph 1001.9mb 70f
2:18am 6 11 mph 1002mb 70f
2:12am 6 10 mph 1002.1mb 70f
2:06am 7 10 mph 1002.2mb 71f
2:00am 7 14 mph 1002.3mb 71f
1:54am 7 10 mph 1002.4mb 71f
1:48am 7 14 mph - -
1:42am 6 14 mph 1002.6mb 71f
1:36am 6 10 mph 1002.5mb 71f
1:30am 6 11 mph 1002.5mb 71f
1:24am 7 11 mph 1002.6mb 71f
1:18am 6 10 mph 1002.8mb 71f
1:12am 6 10 mph 1002.8mb 71f
1:06am 7 11 mph 1002.8mb 71f
1:00am 6 8 mph 1002.7mb 71f
12:54am 6 10 mph 1002.8mb 71f
12:48am 6 9 mph - -
12:42am 6 9 mph 1002.8mb 71f
12:36am 5 10 mph 1002.9mb 71f
12:30am 5 9 mph 1002.9mb 71f
12:24am 5 11 mph 1003mb 71f
12:18am 7 11 mph 1003mb 71f
12:12am 7 13 mph 1003.2mb 71f
12:06am 6 10 mph 1003.2mb 71f
12:00am 6 11 mph 1003.2mb 71f
Fri 06/23 11:54pm 6 11 mph 1003.4mb 71f
11:48pm 6 14 mph 1003.5mb 71f
11:42pm 7 13 mph 1003.5mb 71f
11:36pm 7 13 mph 1003.6mb 71f
11:30pm 6 13 mph 1003.7mb 71f
11:24pm 7 14 mph 1003.7mb 71f
11:18pm 8 14 mph - -
11:12pm 9 18 mph 1003.8mb 71f
11:06pm 8 14 mph 1003.9mb 71f
11:00pm 8 14 mph 1003.9mb 71f
10:54pm 8 13 mph 1003.8mb 71f
10:48pm 7 15 mph 1003.9mb 71f
10:42pm 7 13 mph 1003.9mb 71f
10:36pm 8 14 mph 1003.9mb 71f
10:30pm 8 15 mph 1004.1mb 71f
10:24pm 8 13 mph 1004.1mb 71f
10:18pm 7 13 mph - -
10:12pm 7 10 mph 1004.2mb 70f
10:06pm 7 15 mph 1004.3mb 70f
10:00pm 8 15 mph 1004.4mb 70f
9:54pm 9 15 mph 1004.5mb 70f
9:48pm 9 15 mph 1004.6mb 70f
9:42pm 9 15 mph 1004.7mb 70f
9:36pm 7 15 mph 1004.4mb 70f
9:30pm 9 16 mph 1004.3mb 70f
9:24pm 8 14 mph 1004.4mb 70f
9:18pm 8 13 mph 1004.2mb 70f
9:12pm 9 17 mph 1004.1mb 70f
9:06pm 11 18 mph 1004.1mb 70f
9:00pm 9 17 mph 1004mb 70f
8:54pm 10 21 mph 1004mb 70f
8:48pm 10 18 mph 1004mb -
8:42pm 9 14 mph 1004mb 70f
8:36pm 9 16 mph 1004mb 70f
8:30pm 7 13 mph 1004.2mb 70f
8:24pm 6 11 mph 1004.2mb 70f
8:18pm 6 11 mph 1004.2mb 70f
8:12pm 7 13 mph 1004.1mb 70f
8:06pm 7 11 mph 1004.1mb 70f
8:00pm 8 14 mph 1004.3mb 70f
7:54pm 7 16 mph 1004.3mb 70f
7:48pm 7 14 mph 1004.2mb -
7:42pm 7 11 mph 1004.1mb 70f
7:36pm 8 13 mph 1004mb 71f
7:30pm 7 14 mph 1004.1mb 71f
7:24pm 8 17 mph 1004.2mb 71f
7:18pm 9 17 mph 1004.2mb 71f
7:12pm 9 16 mph 1004.2mb 71f
7:06pm 9 15 mph 1004.3mb 71f
7:00pm 9 16 mph 1004.3mb 71f
6:54pm 9 17 mph 1004.4mb 71f
6:48pm 9 16 mph 1004.4mb -
6:42pm 8 15 mph 1004.4mb 71f
6:36pm 10 17 mph 1004.4mb 71f
6:30pm 9 16 mph 1004.6mb 71f
6:24pm 11 17 mph 1004.6mb 71f
6:18pm 10 20 mph - -
6:12pm 10 16 mph 1004.6mb 71f
6:06pm 10 21 mph 1004.7mb 71f
6:00pm 10 20 mph 1004.7mb 71f
5:54pm 10 17 mph 1004.8mb 72f
5:48pm 9 16 mph 1004.8mb 71f
5:42pm 10 21 mph 1004.7mb 71f
5:36pm 9 17 mph 1004.8mb 72f
5:30pm 8 16 mph 1004.7mb 72f
5:24pm 8 14 mph 1004.7mb 73f
5:18pm 10 20 mph 1004.8mb 73f
5:12pm 9 17 mph 1004.7mb 74f
5:06pm 8 16 mph 1004.8mb 74f
5:00pm 8 16 mph 1004.8mb 74f
4:54pm 7 15 mph 1004.9mb 76f
4:48pm 6 13 mph 1004.8mb 76f
4:42pm 7 14 mph 1004.9mb 74f
4:36pm 8 16 mph 1005mb 75f
4:30pm 7 16 mph 1005.1mb 75f
4:24pm 8 17 mph 1005.3mb 75f
4:18pm 8 21 mph - -
4:12pm 9 20 mph 1005.3mb 74f
4:06pm 8 17 mph 1005.4mb 74f
4:00pm 9 20 mph 1005.4mb 74f
3:54pm 8 18 mph 1005.5mb 74f
3:48pm 9 17 mph 1005.6mb 73f
3:42pm 8 18 mph 1005.7mb 73f
3:36pm 7 16 mph 1005.8mb 73f
3:30pm 7 16 mph 1005.8mb 74f
3:24pm 9 15 mph 1005.8mb 74f
3:18pm 8 15 mph 1005.9mb 73f
3:12pm 8 17 mph 1006mb 73f
3:06pm 8 18 mph 1006.1mb 73f
3:00pm 9 20 mph 1006.2mb 73f
2:54pm 9 17 mph 1006.2mb 73f
2:48pm 8 18 mph 1006.2mb 74f
2:42pm 9 20 mph 1006.4mb 75f
2:36pm 9 17 mph 1006.4mb 75f
2:30pm 9 17 mph 1006.4mb 74f
2:24pm 9 21 mph 1006.6mb 74f
2:18pm 6 13 mph 1006.6mb 75f
2:12pm 8 15 mph 1006.6mb 76f
2:06pm 7 15 mph 1006.7mb 75f
2:00pm 9 16 mph 1006.8mb 75f
1:54pm 9 17 mph 1006.9mb 76f
1:48pm 8 16 mph 1006.9mb 76f
1:42pm 7 15 mph 1007.1mb 75f
1:36pm 7 16 mph 1007.1mb 75f
1:30pm 7 14 mph 1007.1mb 75f
1:24pm 6 16 mph 1007.2mb 76f
1:18pm 6 14 mph 1007.2mb 76f
1:12pm 6 16 mph 1007.4mb 76f
1:06pm 7 13 mph 1007.6mb 77f
1:00pm 7 13 mph 1007.7mb 76f
12:54pm 6 15 mph 1007.9mb 76f
12:48pm 6 15 mph 1007.9mb 76f
12:42pm 6 14 mph 1008.1mb 76f
12:36pm 7 15 mph 1008.2mb 75f
12:30pm 8 17 mph 1008.2mb 76f
12:24pm 6 14 mph 1008.2mb 76f
12:18pm 7 14 mph 1008.1mb 76f
12:12pm 6 15 mph 1008.1mb 77f
12:06pm 6 13 mph 1008.1mb 77f
12:00pm 8 15 mph 1008.1mb 78f
11:54am 6 14 mph 1008.2mb 77f
11:48am 6 14 mph - -
11:42am 7 15 mph 1008.4mb 77f
11:36am 7 14 mph 1008.4mb 78f
11:30am 7 13 mph 1008.4mb 78f
11:24am 6 13 mph 1008.4mb 77f
11:18am 6 13 mph 1008.5mb 77f
11:12am 5 11 mph 1008.5mb 78f
11:06am 7 11 mph 1008.5mb 78f
11:00am 6 11 mph 1008.5mb 77f
10:54am 5 11 mph 1008.6mb 77f
10:48am 5 10 mph 1008.7mb 77f
10:42am 3 8 mph 1008.8mb 78f
10:36am 7 10 mph 1008.9mb 77f
10:30am 5 9 mph 1009mb 76f
10:24am 5 10 mph 1009mb 76f
10:18am 6 10 mph 1009.1mb 76f
10:12am 3 7 mph 1009.2mb 76f
10:06am 5 8 mph 1009.2mb 76f
10:00am 3 7 mph 1009.2mb 76f
9:54am 2 6 mph 1009.3mb 74f
9:48am 3 8 mph 1009.3mb 76f
9:42am 5 9 mph 1009.4mb 74f
9:36am 5 8 mph 1009.5mb 74f
9:30am 3 7 mph 1009.5mb 73f
9:24am 3 8 mph 1009.7mb 73f
9:18am 2 8 mph - -
9:12am 3 6 mph 1009.6mb 73f
9:06am 3 8 mph 1009.7mb 71f
9:00am 5 9 mph 1009.9mb 70f
8:54am 5 10 mph 1010mb 70f
8:48am 5 10 mph - -
8:42am 6 10 mph 1010.1mb 69f
8:36am 5 9 mph 1010.1mb 69f
8:30am 5 8 mph 1010mb 69f
8:24am 5 10 mph 1010mb 69f
8:18am 5 8 mph 1010.1mb 68f
8:12am 5 11 mph 1010mb 68f
8:06am 6 11 mph 1010.1mb 67f
8:00am 6 10 mph 1010.1mb 67f
7:54am 5 9 mph 1010.3mb 67f
7:48am 3 7 mph 1010.2mb 67f
7:42am 3 6 mph 1010.1mb 67f
7:36am 2 6 mph 1010mb 67f
7:30am 3 7 mph 1010mb 67f
7:24am 3 8 mph 1009.9mb 67f
7:18am 5 8 mph 1009.9mb 67f
7:12am 3 8 mph 1010mb 67f
7:06am 3 6 mph 1010mb 67f
7:00am 3 6 mph 1010mb 67f
6:54am 3 8 mph 1010mb 66f
6:48am 5 10 mph 1009.9mb 66f
6:42am 5 8 mph 1009.9mb 66f
6:36am 5 9 mph 1009.9mb 66f
6:30am 3 7 mph 1009.8mb 66f
6:24am 3 6 mph 1010mb 66f
6:18am 3 6 mph - -
6:12am 3 7 mph 1010mb 66f
6:06am 5 8 mph 1010mb 66f
6:00am 5 9 mph 1010.1mb 66f
5:54am 5 9 mph 1010.1mb 66f
5:48am 5 9 mph - -
5:42am 3 7 mph 1010.1mb 66f
5:36am 3 8 mph 1010mb 66f
5:30am 3 7 mph 1010mb 66f
5:24am 3 9 mph 1010mb 66f
5:18am 3 7 mph 1010.1mb 66f
5:12am 3 8 mph 1010.1mb 66f
5:06am 2 6 mph 1010.1mb 67f
5:00am 2 6 mph 1010mb 67f
4:54am 2 5 mph 1010mb 66f
4:48am 2 6 mph - -
4:42am 3 7 mph 1010.1mb 66f
4:36am 5 7 mph 1010.2mb 66f
4:30am 5 7 mph 1010.1mb 66f
4:24am 3 8 mph 1010.1mb 66f
4:18am 5 8 mph 1010.1mb 66f
4:12am 5 8 mph 1010mb 66f
4:06am 3 7 mph 1010mb 67f
4:00am 2 7 mph 1010mb 67f
3:54am 3 6 mph 1010mb 67f
3:48am 2 5 mph 1010mb 67f
3:42am 2 6 mph 1010.1mb 67f
3:36am 5 8 mph 1010.1mb 67f
3:30am 2 7 mph 1010.1mb 67f
3:24am 3 6 mph 1010.1mb 67f
3:18am 2 6 mph 1010.3mb 66f
3:12am 3 6 mph 1010.3mb 66f
3:06am 2 5 mph 1010.3mb 67f
3:00am 3 6 mph 1010.3mb 67f
2:54am 3 7 mph 1010.4mb 67f
2:48am 3 6 mph 1010.5mb 67f
2:42am 3 7 mph 1010.6mb -
2:36am 5 7 mph 1010.7mb -
2:30am 2 6 mph 1010.8mb 67f
2:24am 2 5 mph 1010.9mb 67f
2:18am 3 6 mph 1011mb 67f
2:12am 2 7 mph 1011mb 67f
2:06am 2 6 mph 1011.1mb 67f
2:00am 1 3 mph 1011.2mb 67f
1:54am 2 6 mph 1011.3mb 67f
1:48am 1 5 mph 1011.5mb 67f
1:42am 2 6 mph 1011.6mb -
1:36am 3 6 mph 1011.6mb -
1:30am 2 5 mph 1011.6mb 68f
1:24am 2 5 mph 1011.7mb 68f
1:18am 2 5 mph 1011.7mb 68f
1:12am 2 6 mph 1011.9mb 68f
1:06am 2 5 mph 1012.1mb 68f
1:00am 2 5 mph 1012.1mb 68f
12:54am 2 5 mph 1012.2mb 68f
12:48am 2 6 mph 1012.2mb 68f
12:42am 5 7 mph 1012.2mb 68f
12:36am 3 6 mph 1012.3mb 68f
12:30am 2 6 mph 1012.4mb 68f
12:24am 3 7 mph 1012.5mb 68f
12:18am 2 5 mph - -
12:12am 3 7 mph 1012.8mb 68f
12:06am 3 7 mph 1012.9mb 68f
12:00am 3 7 mph 1013mb 68f
Thu 06/22 11:54pm 3 5 mph 1013.1mb 68f
11:48pm 3 7 mph 1013.1mb -
11:42pm 2 5 mph 1013.2mb 68f
11:36pm 2 6 mph 1013.2mb 68f
11:30pm 3 6 mph 1013.3mb 68f
11:24pm 2 5 mph 1013.2mb 68f
11:18pm 2 3 mph 1013.1mb 68f
11:12pm 2 5 mph 1013.1mb 68f
11:06pm 2 3 mph 1013.1mb 68f
11:00pm 2 5 mph 1013.1mb 68f
10:54pm 2 6 mph 1013.1mb 68f
10:48pm 2 7 mph - -
10:42pm 2 3 mph 1013.2mb 68f
10:36pm 3 6 mph 1013.3mb 68f
10:30pm 2 5 mph 1013.3mb 68f
10:24pm 3 8 mph 1013.3mb 68f
10:18pm 3 7 mph 1013.2mb -
10:12pm 2 5 mph 1013.1mb 69f
10:06pm 3 7 mph 1013.1mb 69f
10:00pm 3 7 mph 1013.2mb 69f
9:54pm 3 6 mph 1013.2mb 69f
9:48pm 3 8 mph 1013.2mb 69f
9:42pm 5 9 mph 1013.3mb 70f
9:36pm 3 6 mph 1013.2mb 70f
9:30pm 2 5 mph 1013.1mb 69f
9:24pm 3 7 mph 1013.2mb 69f
9:18pm 3 8 mph 1013.3mb -
9:12pm 5 8 mph 1013.3mb 70f
9:06pm 6 10 mph 1013.2mb 71f
9:00pm 5 8 mph 1013.2mb 71f
8:54pm 6 10 mph 1013.1mb 71f
8:48pm 6 10 mph 1013.1mb -
8:42pm 6 9 mph 1013mb 71f
8:36pm 6 9 mph 1013mb 71f
8:30pm 6 9 mph 1013mb 71f
8:24pm 5 10 mph 1013mb 71f
8:18pm 7 11 mph 1013mb 71f
8:12pm 7 13 mph 1013mb 72f
8:06pm 7 11 mph 1012.9mb 71f
8:00pm 7 11 mph 1012.9mb 72f
7:54pm 6 9 mph 1012.9mb 71f
7:48pm 6 11 mph 1012.9mb -
7:42pm 5 10 mph 1012.9mb 71f
7:36pm 6 10 mph 1012.8mb 71f
7:30pm 6 9 mph 1012.8mb 71f
7:24pm 5 8 mph 1012.8mb 71f
7:18pm 6 10 mph - -
7:12pm 6 10 mph 1012.7mb 71f
7:06pm 6 11 mph 1012.7mb 71f
7:00pm 7 11 mph 1012.6mb 72f
6:54pm 7 11 mph 1012.5mb 72f
6:48pm 7 13 mph 1012.4mb 73f
6:42pm 6 11 mph 1012.5mb 73f
6:36pm 8 14 mph 1012.5mb 73f
6:30pm 8 11 mph 1012.4mb 74f
6:24pm 8 16 mph 1012.3mb 74f
6:18pm 6 10 mph 1012.3mb -
6:12pm 8 15 mph 1012.4mb 73f
6:06pm 9 15 mph 1012.5mb 73f
6:00pm 8 15 mph 1012.5mb 73f
5:54pm 7 15 mph 1012.3mb 73f
5:48pm 7 13 mph 1012.3mb 74f
5:42pm 7 14 mph 1012.4mb 75f
5:36pm 7 14 mph 1012.4mb 75f
5:30pm 7 13 mph 1012.4mb 75f
5:24pm 8 13 mph 1012.5mb 75f
5:18pm 10 16 mph 1012.4mb 76f
5:12pm 9 15 mph 1012.4mb 77f
5:06pm 11 20 mph 1012.4mb 77f
5:00pm 9 18 mph 1012.4mb 77f
4:54pm 9 15 mph 1012.4mb 77f
4:48pm 9 14 mph 1012.4mb 78f
4:42pm 11 20 mph 1012.4mb 78f
4:36pm 9 15 mph 1012.5mb 77f
4:30pm 9 15 mph 1012.5mb 78f
4:24pm 9 14 mph 1012.7mb 78f
4:18pm 10 18 mph 1012.6mb 77f
4:12pm 10 18 mph 1012.6mb 78f
4:06pm 9 16 mph 1012.6mb 78f
4:00pm 9 16 mph 1012.6mb 77f
3:54pm 9 15 mph 1012.5mb 77f
3:48pm 9 16 mph 1012.4mb 78f
3:42pm 8 16 mph 1012.6mb 78f
3:36pm 9 17 mph 1012.6mb 78f
3:30pm 10 15 mph 1012.6mb 78f
3:24pm 6 11 mph 1012.6mb 78f
3:18pm 6 10 mph 1012.6mb 79f
3:12pm 6 13 mph 1012.6mb 79f
3:06pm 6 14 mph 1012.7mb 79f
3:00pm 6 11 mph 1012.7mb 78f
2:54pm 6 14 mph 1012.7mb 77f
2:48pm 7 15 mph 1012.8mb 78f
2:42pm 5 11 mph 1012.8mb 77f
2:36pm 3 9 mph 1012.9mb 78f
2:30pm 6 9 mph 1013.1mb 78f
2:24pm 6 11 mph 1013.2mb 77f
2:18pm 5 11 mph 1013.2mb 77f
2:12pm 6 11 mph 1013.3mb 77f
2:06pm 7 11 mph 1013.4mb 77f
2:00pm 6 13 mph 1013.5mb 76f
1:54pm 3 9 mph 1013.6mb 76f
1:48pm 5 9 mph - -
1:42pm 5 10 mph 1013.8mb 76f
1:36pm 7 14 mph 1013.8mb 76f
1:30pm 8 16 mph 1013.8mb 76f
1:24pm 6 13 mph 1013.8mb 75f
1:18pm 6 15 mph 1013.9mb 76f
1:12pm 7 14 mph 1014mb 76f
1:06pm 7 13 mph 1014.1mb 76f
1:00pm 6 13 mph 1014mb 74f
12:54pm 3 8 mph 1014.1mb 76f
12:48pm 6 11 mph - -
12:42pm 5 9 mph 1014.3mb 75f
12:36pm 6 10 mph 1014.2mb 76f
12:30pm 6 10 mph 1014.2mb 75f
12:24pm 3 8 mph 1014.3mb 75f
12:18pm 3 7 mph 1014.5mb 76f
12:12pm 3 7 mph 1014.5mb 77f
12:06pm 3 6 mph 1014.5mb 77f
12:00pm 3 6 mph 1014.5mb 77f
11:54am 2 6 mph 1014.6mb 76f
11:48am 2 5 mph 1014.6mb 77f
11:42am 2 5 mph 1014.5mb 77f
11:36am 1 3 mph 1014.5mb 77f
11:30am 2 5 mph 1014.6mb 77f
11:24am 3 7 mph 1014.5mb 76f
11:18am 5 8 mph 1014.5mb 76f
11:12am 1 3 mph 1014.4mb 75f
11:06am 1 5 mph 1014.3mb 75f
11:00am 2 5 mph 1014.4mb 76f
10:54am 2 5 mph 1014.5mb 74f
10:48am 3 5 mph 1014.7mb 74f
10:42am 5 7 mph 1014.7mb 73f
10:36am 2 5 mph 1014.8mb 73f
10:30am 2 5 mph 1014.9mb 74f
10:24am 2 5 mph 1015mb 74f
10:18am 3 6 mph - -
10:12am 3 6 mph 1015.2mb 73f
10:06am 5 9 mph 1015.2mb 74f
10:00am 3 7 mph 1015.3mb 72f
9:54am 3 6 mph 1015.3mb 74f
9:48am 3 6 mph 1015.3mb 74f
9:42am 2 5 mph 1015.4mb 74f
9:36am 2 5 mph 1015.6mb 74f
9:30am 2 6 mph 1015.6mb 74f
9:24am 2 7 mph 1015.7mb 74f
9:18am 3 6 mph 1015.8mb 74f
9:12am 3 7 mph 1015.8mb 74f
9:06am 3 7 mph 1015.9mb 73f
9:00am 5 7 mph 1016mb 73f
8:54am 5 7 mph 1015.9mb 72f
8:48am 6 8 mph 1015.8mb 72f
8:42am 6 10 mph 1015.8mb 72f
8:36am 5 8 mph 1015.8mb 71f
8:30am 6 10 mph 1015.8mb 71f
8:24am 5 7 mph 1015.9mb 71f
8:18am 6 9 mph 1015.9mb 70f
8:12am 2 7 mph 1015.9mb 69f
8:06am  -  3 mph 1015.8mb 70f
8:00am 3 5 mph 1015.7mb 69f
7:54am 1 3 mph 1015.7mb 68f
7:48am 1 2 mph 1015.5mb 68f
7:42am 3 3 mph 1015.5mb 68f
7:36am 3 6 mph 1015.6mb 68f
7:30am 1 5 mph 1015.5mb 67f
7:24am 3 7 mph 1015.5mb 67f
7:18am  -  2 mph 1015.5mb 67f
7:12am 2 6 mph 1015.4mb 67f
7:06am 3 8 mph 1015.4mb 67f
7:00am 5 9 mph 1015.4mb 66f
6:54am 3 9 mph 1015.4mb 67f
6:48am 3 6 mph 1015.2mb 67f
6:42am 3 5 mph 1015mb 67f
6:36am 3 5 mph 1015.1mb 66f
6:30am 2 5 mph 1015mb 66f
6:24am  -  2 mph 1014.9mb 67f
6:18am  -  0 mph 1014.9mb 67f
6:12am  -  1 mph 1014.9mb 66f
6:06am 1 2 mph 1015mb 66f
6:00am 2 5 mph 1014.9mb 66f
5:54am  -  2 mph 1014.8mb 66f
5:48am 1 2 mph 1014.8mb 66f
5:42am 2 3 mph 1014.7mb 65f
5:36am 2 5 mph 1014.6mb 64f
5:30am 2 3 mph 1014.6mb 64f
5:24am 2 3 mph 1014.5mb 64f
5:18am 3 6 mph 1014.4mb 63f
5:12am 5 8 mph 1014.3mb 63f
5:06am 5 6 mph 1014.3mb 63f
5:00am 5 7 mph 1014.3mb 63f
4:54am 5 7 mph 1014.3mb 63f
4:48am 5 6 mph - -
4:42am 3 7 mph 1014.2mb 64f
4:36am 3 6 mph 1014.1mb 64f
4:30am 3 6 mph 1014mb 64f
4:24am 2 6 mph 1014mb 64f
4:18am 1 3 mph 1014mb 63f
4:12am 2 3 mph 1014mb 64f
4:06am  -  2 mph 1014mb 64f
4:00am  -  1 mph 1014mb 64f
3:54am 1 3 mph 1014mb 64f
3:48am  -  1 mph 1013.9mb 63f
3:42am  -  1 mph 1013.8mb 63f
3:36am  -  2 mph 1013.8mb 64f
3:30am  -  2 mph 1013.8mb 63f
3:24am  -  2 mph 1013.7mb 64f
3:18am 1 2 mph 1013.7mb 64f
3:12am  -  1 mph 1013.6mb 64f
3:06am 1 3 mph 1013.6mb 65f
3:00am 1 2 mph 1013.5mb 65f
2:54am  -  1 mph 1013.5mb 65f
2:48am  -  2 mph 1013.5mb 65f
2:42am 1 3 mph 1013.5mb -
2:36am 2 5 mph 1013.4mb -
2:30am 5 7 mph 1013.3mb 66f
2:24am 5 5 mph 1013.4mb 65f
2:18am 3 5 mph 1013.4mb 65f
2:12am 3 6 mph 1013.4mb 66f
2:06am 3 5 mph 1013.4mb 66f
2:00am 3 6 mph 1013.4mb 66f
1:54am 3 5 mph 1013.4mb 66f
1:48am 3 5 mph 1013.5mb -
1:42am 3 3 mph 1013.4mb -
1:36am 3 5 mph 1013.5mb -
1:30am 3 5 mph 1013.5mb 66f
1:24am 3 6 mph 1013.4mb 66f
1:18am 2 6 mph - -
1:12am 3 3 mph 1013.4mb 66f
1:06am 2 3 mph 1013.4mb 66f
1:00am 1 2 mph 1013.4mb 66f
12:54am  -  1 mph 1013.3mb 67f
12:48am  -  1 mph 1013.4mb 66f
12:42am  -  2 mph 1013.4mb 66f
12:36am 1 2 mph 1013.4mb 67f
12:30am 3 6 mph 1013.4mb 67f
12:24am 2 2 mph 1013.3mb 67f
12:18am 2 5 mph 1013.3mb 67f
12:12am 3 7 mph 1013.2mb 68f
12:06am 3 6 mph 1013.2mb 68f
12:00am 3 6 mph 1013.1mb 67f
Wed 06/21 11:54pm 2 3 mph 1013mb 68f
11:48pm 2 3 mph 1013mb -
11:42pm 2 3 mph 1013mb 69f
11:36pm 3 5 mph 1013mb 69f
11:30pm 2 5 mph 1012.9mb 69f
11:24pm 2 2 mph 1012.8mb 69f
11:18pm 2 3 mph 1012.7mb 69f
11:12pm 2 5 mph 1012.8mb 68f
11:06pm 5 6 mph 1012.7mb 68f
11:00pm 6 8 mph 1012.7mb 68f
10:54pm 6 8 mph 1012.6mb 69f
10:48pm 5 8 mph 1012.6mb 68f
10:42pm 5 7 mph 1012.5mb 68f
10:36pm 5 7 mph 1012.6mb 68f
10:30pm 5 6 mph 1012.6mb 67f
10:24pm 5 7 mph 1012.6mb 67f
10:18pm 5 6 mph 1012.6mb -
10:12pm 5 6 mph 1012.6mb 66f
10:06pm 3 6 mph 1012.5mb 67f
10:00pm 2 2 mph 1012.5mb 66f
9:54pm  -  1 mph 1012.5mb 67f
9:48pm 2 2 mph 1012.4mb 66f
9:42pm 3 5 mph 1012.3mb 67f
9:36pm 3 5 mph 1012.2mb 67f
9:30pm 3 5 mph 1012.1mb 67f
9:24pm 5 8 mph 1012.1mb 68f
9:18pm 6 8 mph 1012.1mb 68f
9:12pm 6 8 mph 1012mb 68f
9:06pm 3 5 mph 1011.9mb 68f
9:00pm 3 6 mph 1011.8mb 68f
8:54pm 6 8 mph 1011.6mb 68f
8:48pm 5 8 mph 1011.5mb -
8:42pm 6 9 mph 1011.4mb 68f
8:36pm 7 9 mph 1011.4mb 68f
8:30pm 8 10 mph 1011.3mb 69f
8:24pm 7 10 mph 1011.3mb 69f
8:18pm 6 10 mph 1011.3mb 69f
8:12pm 7 11 mph 1011.3mb 69f
8:06pm 7 11 mph 1011.2mb 69f
8:00pm 7 13 mph 1011.2mb 70f
7:54pm 8 14 mph 1011.1mb 70f
7:48pm 9 15 mph 1011.2mb -
7:42pm 11 18 mph 1011.2mb 69f
7:36pm 11 17 mph 1011.2mb 69f
7:30pm 10 17 mph 1011.1mb 69f
7:24pm 14 22 mph 1011mb 70f
7:18pm 13 21 mph - -
7:12pm 13 21 mph 1010.7mb 72f
7:06pm 16 25 mph 1010.5mb 74f
7:00pm 13 21 mph 1010.5mb 76f
6:54pm 9 15 mph 1010.2mb 76f
6:48pm 7 11 mph 1010.2mb 74f
6:42pm 8 17 mph 1010.3mb 74f
6:36pm 6 10 mph 1010.2mb 75f
6:30pm 6 11 mph 1010mb 74f
6:24pm 5 8 mph 1010mb 74f
6:18pm 6 9 mph 1010mb -
6:12pm 7 11 mph 1009.9mb 74f
6:06pm 8 13 mph 1009.9mb 74f
6:00pm 8 11 mph 1009.8mb 74f
5:54pm 7 14 mph 1009.9mb 74f
5:48pm 6 11 mph 1009.9mb -
5:42pm 7 14 mph 1009.8mb 75f
5:36pm 7 15 mph 1009.8mb 73f
5:30pm 6 13 mph 1009.8mb 73f
5:24pm 6 14 mph 1009.7mb 73f
5:18pm 6 15 mph 1009.7mb 75f
5:12pm 6 14 mph 1009.8mb 75f
5:06pm 7 11 mph 1009.8mb 76f
5:00pm 8 16 mph 1009.8mb 76f
4:54pm 7 11 mph 1009.7mb 76f
4:48pm 8 14 mph - -
4:42pm 8 13 mph 1009.7mb 76f
4:36pm 9 16 mph 1009.7mb 76f
4:30pm 9 18 mph 1009.6mb 77f
4:24pm 9 16 mph 1009.6mb 78f
4:18pm 11 16 mph 1009.6mb 78f
4:12pm 8 16 mph 1009.6mb 78f
4:06pm 9 16 mph 1009.7mb 79f
4:00pm 10 18 mph 1009.7mb 79f
3:54pm 10 16 mph 1009.7mb 79f
3:48pm 9 15 mph 1009.7mb 78f
3:42pm 10 18 mph 1009.8mb 79f
3:36pm 11 20 mph 1009.8mb 79f
3:30pm 10 18 mph 1009.7mb 79f
3:24pm 9 17 mph 1009.7mb 78f
3:18pm 9 16 mph 1009.7mb 78f
3:12pm 10 18 mph 1009.8mb 78f
3:06pm 9 16 mph 1009.7mb 79f
3:00pm 9 18 mph 1009.8mb 77f
2:54pm 8 15 mph 1009.9mb 81f
2:48pm 10 18 mph 1009.9mb 81f
2:42pm 9 15 mph 1010mb 81f
2:36pm 8 15 mph 1010mb 80f
2:30pm 9 18 mph 1010mb 81f
2:24pm 7 11 mph 1010.1mb 81f
2:18pm 10 17 mph 1010.2mb 81f
2:12pm 11 18 mph 1010.2mb 82f
2:06pm 10 17 mph 1010.1mb 83f
2:00pm 10 16 mph 1010.2mb 83f
1:54pm 10 15 mph 1010.3mb 83f
1:48pm 13 22 mph - -
1:42pm 9 17 mph - -
1:36pm 10 20 mph - -
1:30pm 11 18 mph 1010.6mb 82f
1:24pm 13 22 mph 1010.5mb 83f
1:18pm 9 15 mph 1010.6mb 82f
1:12pm 8 14 mph 1010.7mb 82f
1:06pm 11 18 mph 1010.7mb 82f
1:00pm 13 22 mph 1010.7mb 83f
12:54pm 13 23 mph 1010.8mb 83f
12:48pm 9 16 mph 1010.9mb 82f
12:42pm 8 14 mph 1011mb 83f
12:36pm 11 18 mph 1011mb 83f
12:30pm 9 15 mph 1011.1mb 81f
12:24pm 10 20 mph 1011.1mb 81f
12:18pm 9 21 mph 1011.2mb 81f
12:12pm 8 14 mph 1011.2mb 83f
12:06pm 8 15 mph 1011.3mb 83f
12:00pm 8 16 mph 1011.4mb 81f
11:54am 9 15 mph 1011.5mb 81f
11:48am 10 16 mph 1011.3mb 82f
11:42am 9 14 mph 1011.4mb 83f
11:36am 10 18 mph 1011.5mb 82f
11:30am 9 15 mph 1011.4mb 82f
11:24am 9 15 mph 1011.5mb 81f
11:18am 8 15 mph 1011.6mb 82f
11:12am 7 14 mph 1011.6mb 81f
11:06am 5 9 mph 1011.6mb 81f
11:00am 5 9 mph 1011.7mb 80f
10:54am 5 9 mph 1011.8mb 76f
10:48am 5 8 mph - -
10:42am 5 8 mph 1011.8mb 76f
10:36am 6 11 mph 1011.8mb 76f
10:30am 5 9 mph 1011.9mb 77f
10:24am 5 7 mph 1011.9mb 77f
10:18am 5 9 mph 1011.8mb 78f
10:12am 5 8 mph 1011.9mb 77f
10:06am 3 7 mph 1011.9mb 76f
10:00am 5 7 mph 1012mb 77f
9:54am 5 9 mph 1012.1mb 76f
9:48am 5 8 mph - -
9:42am 3 8 mph 1012mb 75f
9:36am 3 8 mph 1012mb 76f
9:30am 3 7 mph 1012.1mb 75f
9:24am 3 7 mph 1012.1mb 75f
9:18am 3 6 mph 1012.2mb 74f
9:12am 3 6 mph 1012.3mb 74f
9:06am 2 9 mph 1012.4mb 74f
9:00am 3 8 mph 1012.6mb 74f
8:54am 5 10 mph 1012.6mb 73f
8:48am 6 10 mph 1012.7mb 72f
8:42am 6 9 mph 1012.7mb 71f
8:36am 5 8 mph 1012.7mb 71f
8:30am 5 8 mph 1012.7mb 72f
8:24am 6 8 mph 1012.7mb 72f
8:18am 3 6 mph - -
8:12am 3 7 mph 1012.6mb 71f
8:06am 3 7 mph 1012.6mb 70f
8:00am 3 6 mph 1012.6mb 70f
7:54am 6 8 mph 1012.7mb 69f
7:48am 3 6 mph 1012.7mb 69f
7:42am 3 7 mph 1012.7mb 68f
7:36am 5 8 mph 1012.7mb 68f
7:30am 5 9 mph 1012.8mb 68f
7:24am 5 8 mph 1012.8mb 67f
7:18am 5 8 mph 1012.7mb 67f
7:12am 3 7 mph 1012.7mb 67f
7:06am 5 9 mph 1012.8mb 66f
7:00am 5 9 mph 1012.8mb 66f
6:54am 6 11 mph 1012.8mb 65f
6:48am 5 11 mph - -
6:42am 5 8 mph 1012.9mb 66f
6:36am 3 7 mph 1012.8mb 65f
6:30am 3 7 mph 1012.8mb 65f
6:24am 3 7 mph 1012.9mb 65f
6:18am 3 7 mph 1012.9mb 65f
6:12am 3 7 mph 1012.9mb 65f
6:06am 3 5 mph 1012.9mb 66f
6:00am 2 5 mph 1012.8mb 66f
5:54am 3 7 mph 1012.8mb 66f
5:48am 3 6 mph 1012.7mb 66f
5:42am 6 9 mph 1012.7mb 66f
5:36am 5 8 mph 1012.8mb 66f
5:30am 6 8 mph 1012.8mb 66f
5:24am 5 7 mph 1012.8mb 66f
5:18am 6 8 mph - -
5:12am 5 7 mph 1012.8mb 66f
5:06am 5 6 mph 1012.8mb 65f
5:00am 5 7 mph 1012.8mb 65f
4:54am 5 7 mph 1012.7mb 65f
4:48am 5 6 mph 1012.7mb 66f
4:42am 5 7 mph 1012.6mb 65f
4:36am 6 9 mph 1012.6mb 65f
4:30am 5 6 mph 1012.6mb 65f
4:24am 3 5 mph 1012.6mb 65f
4:18am 3 7 mph 1012.6mb 65f
4:12am 2 5 mph 1012.6mb 65f
4:06am 2 5 mph 1012.5mb 65f
4:00am 1 2 mph 1012.5mb 65f
3:54am 1 3 mph 1012.5mb 65f
3:48am 2 6 mph - -
3:42am 2 6 mph 1012.6mb 65f
3:36am 2 6 mph 1012.7mb 65f
3:30am 3 6 mph 1012.7mb 65f
3:24am 3 8 mph 1012.8mb 65f
3:18am 3 6 mph 1012.9mb 65f
3:12am 2 6 mph 1012.9mb 65f
3:06am 3 6 mph 1013mb 65f
3:00am 3 7 mph 1012.9mb 65f
2:54am 5 7 mph 1012.9mb 65f
2:48am 3 7 mph 1012.9mb 65f
2:42am 5 9 mph 1013mb 65f
2:36am 5 7 mph 1013mb 65f
2:30am 3 6 mph 1013.1mb 65f
2:24am 3 8 mph 1013mb 65f
2:18am 5 8 mph 1013.1mb 65f
2:12am 3 6 mph 1013.1mb 65f
2:06am 2 7 mph 1013mb 65f
2:00am 3 6 mph 1013.1mb 65f
1:54am 3 6 mph 1013.1mb 65f
1:48am 3 7 mph 1013.1mb 65f
1:42am 2 5 mph 1013.2mb 65f
1:36am 3 6 mph 1013.2mb 65f
1:30am 2 6 mph 1013.2mb 65f
1:24am 3 8 mph 1013.3mb 66f
1:18am 3 7 mph - -
1:12am 5 9 mph 1013.3mb 66f
1:06am 3 7 mph 1013.3mb 66f
1:00am 3 7 mph 1013.3mb 66f
12:54am 5 8 mph 1013.4mb 66f
12:48am 3 8 mph 1013.5mb 66f
12:42am 3 7 mph 1013.5mb 66f
12:36am 3 6 mph 1013.5mb 66f
12:30am 3 6 mph 1013.6mb 66f
12:24am 3 7 mph 1013.5mb 67f
12:18am 3 7 mph 1013.6mb 67f
12:12am 3 7 mph 1013.6mb 67f
12:06am 3 7 mph 1013.6mb 67f
12:00am 3 6 mph 1013.7mb 67f
Tue 06/20 11:54pm 3 6 mph 1013.7mb 67f
11:48pm 3 6 mph 1013.8mb -
11:42pm 3 6 mph 1013.7mb 67f
11:36pm 2 6 mph 1013.7mb 67f
11:30pm 3 7 mph 1013.7mb 67f
11:24pm 7 10 mph 1013.7mb 69f
11:18pm 7 11 mph 1013.7mb 69f
11:12pm 5 7 mph 1013.6mb 69f
11:06pm 6 10 mph 1013.7mb 69f
11:00pm 7 9 mph 1013.7mb 69f
10:54pm 7 11 mph 1013.6mb 69f
10:48pm 8 11 mph 1013.5mb 69f
10:42pm 8 13 mph 1013.4mb 70f
10:36pm 8 13 mph 1013.5mb 70f
10:30pm 8 14 mph 1013.5mb 70f
10:24pm 8 13 mph 1013.5mb 70f
10:18pm 7 11 mph 1013.5mb -
10:12pm 7 13 mph 1013.5mb 70f
10:06pm 8 13 mph 1013.6mb 71f
10:00pm 8 13 mph 1013.5mb 71f
9:54pm 6 9 mph 1013.4mb 71f
9:48pm 6 9 mph 1013.4mb 70f
9:42pm 7 11 mph 1013.4mb 70f
9:36pm 8 14 mph 1013.3mb 71f
9:30pm 8 11 mph 1013.2mb 71f
9:24pm 9 15 mph 1013.2mb 72f
9:18pm 8 11 mph - -
9:12pm 9 14 mph 1013.1mb 72f
9:06pm 9 15 mph 1013mb 72f
9:00pm 9 14 mph 1013mb 73f
8:54pm 10 16 mph 1012.9mb 73f
8:48pm 9 15 mph - -
8:42pm 8 14 mph 1012.7mb 73f
8:36pm 9 13 mph 1012.7mb 73f
8:30pm 9 14 mph 1012.6mb 73f
8:24pm 10 15 mph 1012.5mb 73f
8:18pm 9 16 mph 1012.4mb 73f
8:12pm 10 15 mph 1012.4mb 73f
8:06pm 11 17 mph 1012.5mb 74f
8:00pm 10 15 mph 1012.4mb 74f
7:54pm 10 16 mph 1012.3mb 74f
7:48pm 11 17 mph 1012.3mb -
7:42pm 10 17 mph 1012.3mb 74f
7:36pm 8 15 mph 1012.2mb 74f
7:30pm 9 17 mph 1012.1mb 74f
7:24pm 13 20 mph 1012mb 75f
7:00pm 11 20 mph 1011.8mb 76f
6:54pm 11 22 mph 1011.8mb 76f
6:48pm 11 20 mph 1011.8mb 76f
6:42pm 11 21 mph 1011.7mb 76f
6:36pm 14 24 mph 1011.6mb 76f
6:30pm 14 21 mph 1011.5mb 76f
6:24pm 10 18 mph 1011.5mb 77f
6:18pm 10 21 mph - -
6:12pm 9 16 mph 1011.5mb 76f
6:06pm 10 17 mph 1011.4mb 76f
6:00pm 11 18 mph 1011.3mb 76f
5:54pm 11 18 mph 1011.3mb 77f
5:48pm 10 16 mph 1011.3mb 77f
5:42pm 10 21 mph 1011.3mb 77f
5:36pm 10 20 mph 1011.3mb 77f
5:30pm 14 28 mph 1011.3mb 77f
5:24pm 13 20 mph 1011.2mb 78f
5:18pm 10 18 mph 1011.2mb 78f
5:12pm 10 20 mph 1011.2mb 78f
5:06pm 11 16 mph 1011.3mb 78f
5:00pm 10 18 mph 1011.3mb 78f
4:54pm 13 22 mph 1011.2mb 78f
4:48pm 13 22 mph - -
4:42pm 13 23 mph 1011mb 78f
4:36pm 13 21 mph 1011mb 78f
4:30pm 11 20 mph 1011mb 78f
4:24pm 13 21 mph 1011mb 78f
4:18pm 11 18 mph 1011.1mb 78f
4:12pm 10 22 mph 1011mb 78f
4:06pm 11 18 mph 1010.9mb 78f
4:00pm 10 17 mph 1010.9mb 77f
3:54pm 13 22 mph 1010.9mb 78f
3:48pm 10 20 mph - -
3:42pm 11 20 mph 1010.8mb 78f
3:36pm 11 21 mph 1010.8mb 78f
3:30pm 9 20 mph 1010.8mb 78f
3:24pm 10 16 mph 1010.8mb 78f
3:18pm 10 18 mph 1010.8mb 78f
3:12pm 9 17 mph 1010.9mb 77f
3:06pm 10 20 mph 1010.9mb 78f
3:00pm 8 14 mph 1010.9mb 77f
2:54pm 10 16 mph 1010.9mb 77f
2:48pm 9 17 mph 1010.8mb 77f
2:42pm 9 15 mph 1010.8mb 78f
2:36pm 10 18 mph 1010.7mb 77f
2:30pm 9 17 mph 1010.8mb 77f
2:24pm 10 18 mph 1010.8mb 77f
2:18pm 10 21 mph 1010.9mb 77f
2:12pm 9 17 mph 1010.9mb 77f
2:06pm 8 15 mph 1010.9mb 76f
2:00pm 8 17 mph 1011mb 74f
1:54pm 9 18 mph 1010.9mb 75f
1:48pm 9 17 mph 1010.9mb 74f
1:42pm 8 16 mph 1010.9mb 74f
1:36pm 7 15 mph 1011mb 74f
1:30pm 9 16 mph 1011.1mb 74f
1:24pm 7 15 mph 1011.1mb 74f
1:18pm 7 15 mph - -
1:12pm 7 16 mph 1011.1mb 74f
1:06pm 7 15 mph 1011.2mb 74f
1:00pm 8 16 mph 1011.2mb 75f
12:54pm 9 16 mph 1011.3mb 74f
12:48pm 8 17 mph 1011.3mb 73f
12:42pm 8 17 mph 1011.4mb 74f
12:36pm 8 15 mph 1011.4mb 73f
12:30pm 8 14 mph 1011.5mb 72f
12:24pm 8 14 mph 1011.5mb 71f
12:18pm 6 14 mph 1011.6mb 71f
12:12pm 7 13 mph 1011.6mb 72f
12:06pm 7 14 mph 1011.5mb 72f
12:00pm 6 14 mph 1011.5mb 72f
11:54am 7 14 mph 1011.5mb 72f
11:48am 6 14 mph 1011.5mb 72f
11:42am 8 15 mph 1011.5mb 72f
11:36am 6 11 mph 1011.5mb 71f
11:30am 6 13 mph 1011.6mb 72f
11:24am 6 11 mph 1011.5mb 73f
11:18am 6 13 mph - -
11:12am 7 16 mph 1011.5mb 72f
11:06am 6 13 mph 1011.5mb 72f
11:00am 5 14 mph 1011.5mb 72f
10:54am 7 13 mph 1011.5mb 72f
10:48am 5 10 mph 1011.6mb 72f